• In Uzbekistan
  • List of Countries
  • For 7 days
  • Water Temperature
  • Satellite Maps
  • Weather Map
  • Weather Widgets
  • user-avatar
    Login

    Hourly Weather Whitehorse

    Today, 25 June, Monday

    Time Temperature Precipitation Wind Pressure Humidity
    00:00 +9°C° 0 mm 1 mps 683 mmHg 70%
    01:00 +8°C° 0 mm 1 mps 683 mmHg 73%
    02:00 +7°C° 0 mm 1 mps 683 mmHg 76%
    03:00 +7°C° 0 mm 1 mps 683 mmHg 79%
    04:00 +8°C° 0 mm 1 mps 683 mmHg 73%
    05:00 +10°C° 0 mm 1 mps 684 mmHg 66%
    06:00 +12°C° 0 mm 1 mps 684 mmHg 59%
    07:00 +13°C° 0 mm 1 mps 684 mmHg 52%
    08:00 +15°C° 0 mm 1 mps 684 mmHg 45%
    09:00 +18°C° 0 mm 1 mps 684 mmHg 38%
    10:00 +19°C° 0 mm 1 mps 684 mmHg 35%
    11:00 +20°C° 0 mm 1 mps 684 mmHg 31%
    12:00 +22°C° 0 mm 1 mps 684 mmHg 28%
    13:00 +20°C° 0 mm 2 mps 684 mmHg 28%
    14:00 +20°C° 0 mm 2 mps 684 mmHg 29%
    15:00 +19°C° 0 mm 2 mps 683 mmHg 29%
    16:00 +19°C° 0 mm 3 mps 683 mmHg 30%
    17:00 +19°C° 0 mm 3 mps 683 mmHg 31%
    18:00 +19°C° 0 mm 4 mps 683 mmHg 32%
    19:00 +17°C° 0 mm 3 mps 683 mmHg 38%
    20:00 +14°C° 0 mm 3 mps 683 mmHg 44%
    21:00 +13°C° 0 mm 2 mps 683 mmHg 50%
    22:00 +12°C° 0 mm 2 mps 683 mmHg 55%
    23:00 +10°C° 0 mm 2 mps 683 mmHg 61%

    Tomorrow, 26 June, Tuesday

    Time Temperature Precipitation Wind Pressure Humidity
    00:00 +8°C° 0 mm 2 mps 684 mmHg 66%
    01:00 +8°C° 0 mm 2 mps 684 mmHg 69%
    02:00 +7°C° 0 mm 2 mps 684 mmHg 72%
    03:00 +7°C° 0 mm 2 mps 684 mmHg 76%
    04:00 +8°C° 0 mm 2 mps 684 mmHg 70%
    05:00 +9°C° 0 mm 2 mps 684 mmHg 65%
    06:00 +10°C° 0 mm 2 mps 685 mmHg 59%
    07:00 +13°C° 0 mm 2 mps 685 mmHg 53%
    08:00 +13°C° 0 mm 3 mps 685 mmHg 47%
    09:00 +16°C° 0 mm 3 mps 685 mmHg 40%
    10:00 +17°C° 0 mm 3 mps 685 mmHg 38%
    11:00 +18°C° 0 mm 4 mps 685 mmHg 36%
    12:00 +19°C° 0 mm 4 mps 685 mmHg 34%
    13:00 +19°C° 0 mm 4 mps 685 mmHg 34%
    14:00 +20°C° 0 mm 5 mps 685 mmHg 34%
    15:00 +20°C° 0 mm 5 mps 685 mmHg 34%
    16:00 +19°C° 0 mm 5 mps 685 mmHg 36%
    17:00 +18°C° 0 mm 4 mps 685 mmHg 38%
    18:00 +18°C° 0 mm 4 mps 685 mmHg 40%
    19:00 +15°C° 0.1 mm 4 mps 685 mmHg 45%
    20:00 +14°C° 0.1 mm 3 mps 685 mmHg 49%
    21:00 +13°C° 0.1 mm 3 mps 685 mmHg 54%
    22:00 +12°C° 0.1 mm 3 mps 685 mmHg 58%
    23:00 +12°C° 0.1 mm 2 mps 685 mmHg 63%

    Day after tomorrow, 27 June, Wednesday

    Time Temperature Precipitation Wind Pressure Humidity
    00:00 +9°C° 0.1 mm 2 mps 685 mmHg 67%
    01:00 +9°C° 0.1 mm 2 mps 685 mmHg 70%
    02:00 +9°C° 0.1 mm 2 mps 685 mmHg 73%
    03:00 +8°C° 0.1 mm 2 mps 685 mmHg 75%
    04:00 +8°C° 0.3 mm 2 mps 685 mmHg 76%
    05:00 +8°C° 0.3 mm 2 mps 685 mmHg 76%
    06:00 +8°C° 0.3 mm 2 mps 685 mmHg 77%
    07:00 +9°C° 0.2 mm 2 mps 685 mmHg 72%
    08:00 +10°C° 0.2 mm 2 mps 685 mmHg 67%
    09:00 +12°C° 0.2 mm 2 mps 685 mmHg 63%
    10:00 +14°C° 0.1 mm 2 mps 686 mmHg 58%
    11:00 +15°C° 0.1 mm 2 mps 686 mmHg 53%
    12:00 +17°C° 0.1 mm 2 mps 686 mmHg 48%
    13:00 +17°C° 0.1 mm 2 mps 686 mmHg 48%
    14:00 +18°C° 0.1 mm 2 mps 685 mmHg 47%
    15:00 +18°C° 0.1 mm 2 mps 685 mmHg 47%
    16:00 +18°C° 0.1 mm 2 mps 685 mmHg 49%
    17:00 +17°C° 0.1 mm 2 mps 685 mmHg 51%
    18:00 +18°C° 0.1 mm 1 mps 685 mmHg 53%
    19:00 +16°C° 0.1 mm 1 mps 685 mmHg 57%
    20:00 +15°C° 0.1 mm 2 mps 684 mmHg 62%
    21:00 +14°C° 0.1 mm 2 mps 684 mmHg 67%
    22:00 +13°C° 0 mm 2 mps 684 mmHg 70%
    23:00 +12°C° 0 mm 2 mps 684 mmHg 72%

    28 June, Thursday

    Time Temperature Precipitation Wind Pressure Humidity
    00:00 +10°C° 0 mm 2 mps 684 mmHg 75%
    01:00 +9°C° 0.1 mm 2 mps 684 mmHg 77%
    02:00 +9°C° 0.1 mm 2 mps 684 mmHg 78%
    03:00 +9°C° 0.1 mm 2 mps 684 mmHg 80%
    04:00 +9°C° 0.2 mm 2 mps 684 mmHg 78%
    05:00 +9°C° 0.2 mm 2 mps 684 mmHg 76%
    06:00 +9°C° 0.2 mm 2 mps 684 mmHg 75%
    07:00 +10°C° 0.2 mm 2 mps 684 mmHg 71%
    08:00 +12°C° 0.2 mm 1 mps 684 mmHg 67%
    09:00 +12°C° 0.2 mm 1 mps 684 mmHg 63%
    10:00 +14°C° 0.1 mm 2 mps 685 mmHg 58%
    11:00 +15°C° 0.1 mm 2 mps 685 mmHg 52%
    12:00 +17°C° 0.1 mm 2 mps 685 mmHg 47%
    13:00 +17°C° 0 mm 2 mps 685 mmHg 44%
    14:00 +18°C° 0 mm 3 mps 685 mmHg 41%
    15:00 +19°C° 0 mm 3 mps 685 mmHg 38%
    16:00 +19°C° 0 mm 3 mps 685 mmHg 39%
    17:00 +19°C° 0 mm 3 mps 684 mmHg 40%
    18:00 +19°C° 0 mm 4 mps 684 mmHg 41%
    19:00 +17°C° 0 mm 3 mps 684 mmHg 47%
    20:00 +14°C° 0 mm 3 mps 684 mmHg 54%
    21:00 +13°C° 0 mm 2 mps 684 mmHg 60%
    22:00 +12°C° 0 mm 2 mps 684 mmHg 66%
    23:00 +10°C° 0 mm 2 mps 684 mmHg 71%

    29 June, Friday

    Time Temperature Precipitation Wind Pressure Humidity
    00:00 +8°C° 0 mm 2 mps 684 mmHg 77%
    01:00 +8°C° 0 mm 2 mps 685 mmHg 79%
    02:00 +7°C° 0 mm 2 mps 685 mmHg 82%
    03:00 +7°C° 0 mm 2 mps 685 mmHg 85%
    04:00 +8°C° 0 mm 2 mps 685 mmHg 79%
    05:00 +9°C° 0 mm 2 mps 686 mmHg 73%
    06:00 +12°C° 0 mm 2 mps 686 mmHg 67%
    07:00 +12°C° 0 mm 3 mps 686 mmHg 60%
    08:00 +14°C° 0 mm 3 mps 686 mmHg 53%
    09:00 +17°C° 0 mm 3 mps 686 mmHg 46%
    10:00 +18°C° 0 mm 3 mps 686 mmHg 43%
    11:00 +19°C° 0 mm 4 mps 686 mmHg 40%
    12:00 +20°C° 0 mm 4 mps 686 mmHg 37%
    13:00 +20°C° 0 mm 4 mps 686 mmHg 37%
    14:00 +20°C° 0 mm 5 mps 686 mmHg 37%
    15:00 +20°C° 0 mm 5 mps 686 mmHg 37%
    16:00 +19°C° 0 mm 5 mps 686 mmHg 39%
    17:00 +19°C° 0 mm 5 mps 686 mmHg 40%
    18:00 +17°C° 0 mm 5 mps 686 mmHg 42%
    19:00 +15°C° 0 mm 4 mps 686 mmHg 48%
    20:00 +14°C° 0 mm 4 mps 687 mmHg 54%
    21:00 +12°C° 0 mm 3 mps 687 mmHg 61%
    22:00 +11°C° 0 mm 3 mps 687 mmHg 67%
    23:00 +9°C° 0 mm 2 mps 687 mmHg 74%

    30 June, Saturday

    Time Temperature Precipitation Wind Pressure Humidity
    00:00 +8°C° 0 mm 2 mps 687 mmHg 80%
    01:00 +8°C° 0 mm 2 mps 688 mmHg 82%
    02:00 +8°C° 0 mm 2 mps 688 mmHg 84%
    03:00 +7°C° 0 mm 2 mps 688 mmHg 86%
    04:00 +8°C° 0.1 mm 2 mps 689 mmHg 81%
    05:00 +9°C° 0.1 mm 2 mps 689 mmHg 76%
    06:00 +10°C° 0.1 mm 2 mps 689 mmHg 71%
    07:00 +12°C° 0.2 mm 2 mps 689 mmHg 67%
    08:00 +13°C° 0.2 mm 2 mps 690 mmHg 62%
    09:00 +14°C° 0.2 mm 2 mps 690 mmHg 57%
    10:00 +14°C° 0.3 mm 2 mps 690 mmHg 57%
    11:00 +15°C° 0.3 mm 2 mps 690 mmHg 57%
    12:00 +15°C° 0.3 mm 2 mps 690 mmHg 56%
    13:00 +16°C° 0.1 mm 2 mps 690 mmHg 54%
    14:00 +16°C° 0.1 mm 2 mps 690 mmHg 51%
    15:00 +17°C° 0.1 mm 3 mps 691 mmHg 48%
    16:00 +17°C° 0 mm 2 mps 691 mmHg 49%
    17:00 +16°C° 0 mm 2 mps 691 mmHg 50%
    18:00 +16°C° 0 mm 2 mps 691 mmHg 52%
    19:00 +15°C° 0 mm 2 mps 691 mmHg 56%
    20:00 +14°C° 0 mm 2 mps 691 mmHg 61%
    21:00 +13°C° 0 mm 2 mps 691 mmHg 66%
    22:00 +12°C° 0 mm 1 mps 691 mmHg 69%
    23:00 +11°C° 0 mm 1 mps 691 mmHg 72%
    Show more